Cherry Point, NC

3:28 PM EDT on May 28, 2017 (GMT -0400)
Cherry Point Marine Corps Air Station

Weather History for KNKT - April, 2013

Change the Weather History Date:

Thursday, April 18, 2013

  Actual Average Record
Temperature  
Mean Temperature 66 °F -  
Max Temperature 77 °F 71 °F 89 °F (2002)
Min Temperature 55 °F 50 °F 33 °F (2001)
Cooling Degree Days 1    
Growing Degree Days 16 (Base 50)    
Moisture  
Dew Point 58 °F    
Average Humidity 72    
Maximum Humidity 90    
Minimum Humidity 55    
Precipitation  
Precipitation 0.00 in - - ()
Sea Level Pressure  
Sea Level Pressure 30.17 in    
Wind  
Wind Speed 6 mph ()    
Max Wind Speed 16 mph    
Max Gust Speed 20 mph    
Visibility 9.6 miles    
Events      
Averages and records for this station are not official NWS values.
T = Trace of Precipitation, MM = Missing Value Source: Averaged Metar Reports

Daily Weather History Graph

Daily Weather History Graph

Search for Another Location

Airport or City:

Trip Planner

Search our weather history database for the weather conditions in past years. The results will help you decide how hot, cold, wet, or windy it might be!

Date:

Astronomy

Apr. 18, 2013 Rise Set
Actual Time 6:31 AM EDT 7:42 PM EDT
Civil Twilight 6:05 AM EDT 8:08 PM EDT
Nautical Twilight 5:34 AM EDT 8:40 PM EDT
Astronomical Twilight 5:01 AM EDT 9:12 PM EDT
Moon 12:43 PM EDT (4/18) 1:52 AM EDT (4/18)
Length of Visible Light 14h 03m
Length of Day
13h 10m
First Quarter, 51% of the Moon is Illuminated
Apr 18
First Quarter
Apr 25
Full
May 2
Last Quarter
May 9
New
May 18
First Quarter

Hourly Weather History & Observations

Time (EDT) Temp. Dew Point Humidity Pressure Visibility Wind Dir Wind Speed Gust Speed Precip Events Conditions
12:54 AM 59.0 °F 55.0 °F 87% 30.20 in 10.0 mi ESE 3.5 mph - N/A   Clear
1:54 AM 60.1 °F 55.9 °F 86% 30.19 in 10.0 mi ESE 3.5 mph - N/A   Clear
2:54 AM 55.9 °F 53.1 °F 90% 30.17 in 10.0 mi SE 4.6 mph - N/A   Clear
3:54 AM 59.0 °F 55.9 °F 90% 30.17 in 10.0 mi Calm Calm - N/A   Clear
4:54 AM 57.9 °F 55.0 °F 90% 30.18 in 10.0 mi Calm Calm - N/A   Clear
5:54 AM 57.0 °F 54.0 °F 89% 30.18 in 5.0 mi ESE 4.6 mph - N/A   Clear
6:54 AM 55.0 °F 52.0 °F 89% 30.20 in 6.0 mi ESE 3.5 mph - N/A   Scattered Clouds
7:54 AM 62.1 °F 59.0 °F 90% 30.21 in 9.0 mi Calm Calm - N/A   Scattered Clouds
8:54 AM 70.0 °F 61.0 °F 73% 30.21 in 10.0 mi SSE 6.9 mph - N/A   Scattered Clouds
9:54 AM 73.0 °F 59.0 °F 61% 30.22 in 10.0 mi SE 11.5 mph - N/A   Mostly Cloudy
10:54 AM 73.9 °F 57.9 °F 57% 30.22 in 10.0 mi South 11.5 mph - N/A   Mostly Cloudy
11:54 AM 73.9 °F 57.9 °F 57% 30.22 in 10.0 mi South 8.1 mph - N/A   Mostly Cloudy
12:54 PM 75.9 °F 59.0 °F 56% 30.20 in 10.0 mi South 12.7 mph - N/A   Mostly Cloudy
1:21 PM 75.2 °F 60.8 °F 61% 30.21 in 10.0 mi South 12.7 mph 18.4 mph N/A   Mostly Cloudy
1:54 PM 75.2 °F 59.0 °F 57% 30.19 in 10.0 mi SSE 12.7 mph 19.6 mph N/A   Mostly Cloudy
2:54 PM 77.0 °F 60.8 °F 57% 30.18 in 10.0 mi SSE 16.1 mph - N/A   Mostly Cloudy
3:54 PM 73.9 °F 57.9 °F 57% 30.16 in 10.0 mi South 13.8 mph 19.6 mph N/A   Partly Cloudy
4:54 PM 75.0 °F 57.9 °F 55% 30.15 in 10.0 mi South 12.7 mph 18.4 mph N/A   Partly Cloudy
5:54 PM 73.9 °F 59.0 °F 59% 30.14 in 10.0 mi SSE 13.8 mph 19.6 mph N/A   Scattered Clouds
6:54 PM 72.0 °F 59.0 °F 64% 30.12 in 10.0 mi SSE 10.4 mph - N/A   Mostly Cloudy
7:54 PM 69.1 °F 59.0 °F 70% 30.12 in 10.0 mi SSE 5.8 mph - N/A   Scattered Clouds
8:54 PM 68.0 °F 60.1 °F 76% 30.13 in 10.0 mi SE 5.8 mph - N/A   Overcast
9:54 PM 66.9 °F 59.0 °F 76% 30.14 in 10.0 mi SE 4.6 mph - N/A   Partly Cloudy
10:54 PM 66.0 °F 61.0 °F 84% 30.12 in 10.0 mi ESE 5.8 mph - N/A   Overcast
11:54 PM 68.0 °F 62.1 °F 81% 30.11 in 10.0 mi SSE 4.6 mph - N/A   Overcast